Weather History for Fort Myers Airport, FL

Change the Weather History Date:

Friday, December 7, 2012

  Actual Average Record
Temperature  
Mean Temperature 70 °F -  
Max Temperature 81 °F 78 °F 90 °F (1978)
Min Temperature 59 °F 56 °F 36 °F (1937)
Cooling Degree Days 5    
Growing Degree Days 20 (Base 50)    
Moisture  
Dew Point 62 °F    
Average Humidity 87    
Maximum Humidity 100    
Minimum Humidity 50    
Precipitation  
Precipitation 0.05 in - - ()
Sea Level Pressure  
Sea Level Pressure 29.95 in    
Wind  
Wind Speed 4 mph (ENE)    
Max Wind Speed 10 mph    
Max Gust Speed -    
Visibility 6 miles    
Events Fog , Rain    
Averages and records for this station are not official NWS values.
T = Trace of Precipitation, MM = Missing Value Source: NWS Daily Summary

Daily Weather History Graph

Daily Weather History Graph

Search for Another Location

Airport:

Trip Planner

Search our weather history database for the weather conditions in past years. The results will help you decide how hot, cold, wet, or windy it might be!

Date:

Astronomy

Dec. 07, 2012 Rise Set
Actual Time 7:02 AM EST 5:34 PM EST
Civil Twilight 6:37 AM EST 5:59 PM EST
Nautical Twilight 6:08 AM EST 6:28 PM EST
Astronomical Twilight 5:40 AM EST 6:56 PM EST
Moon 12:51 AM EST (12/7) 1:03 PM EST (12/7)
Length of Visible Light 11h 22m
Length of Day
10h 31m
Last Quarter, 39% of the Moon is Illuminated
Dec 7
Last Quarter
Dec 13
New
Dec 20
First Quarter
Dec 28
Full
Jan 4
Last Quarter

Hourly Weather History & Observations

Time (EST) Temp. Heat Index Dew Point Humidity Pressure Visibility Wind Dir Wind Speed Gust Speed Precip Events Conditions
12:53 AM 63.0 °F - 61.0 °F 93% 29.94 in 10.0 mi NE 4.6 mph - N/A   Clear
1:53 AM 63.0 °F - 62.1 °F 97% 29.94 in 10.0 mi NE 4.6 mph - N/A   Clear
2:53 AM 62.1 °F - 61.0 °F 96% 29.93 in 10.0 mi ENE 4.6 mph - N/A   Clear
3:53 AM 62.1 °F - 61.0 °F 96% 29.93 in 10.0 mi Calm Calm - N/A   Clear
4:16 AM 62.6 °F - 62.6 °F 100% 29.93 in 10.0 mi Calm Calm - N/A   Partly Cloudy
4:53 AM 61.0 °F - 60.1 °F 97% 29.93 in 10.0 mi Calm Calm - N/A   Clear
5:53 AM 60.1 °F - 59.0 °F 96% 29.94 in 7.0 mi ENE 4.6 mph - N/A   Scattered Clouds
6:00 AM 60.8 °F - 60.8 °F 100% 29.95 in 2.5 mi Calm Calm - N/A   Mostly Cloudy
6:05 AM 60.8 °F - 60.8 °F 100% 29.95 in 0.8 mi ENE 3.5 mph - N/A   Mostly Cloudy
6:22 AM 60.8 °F - 60.8 °F 100% 29.95 in 0.2 mi ENE 3.5 mph - N/A Fog Fog
6:32 AM 60.8 °F - 60.8 °F 100% 29.95 in 0.5 mi ENE 3.5 mph - N/A Fog Fog
6:40 AM 60.8 °F - 60.8 °F 100% 29.95 in 1.0 mi NE 3.5 mph - N/A   Mist
6:44 AM 60.8 °F - 59.0 °F 94% 29.95 in 2.0 mi Calm Calm - N/A   Overcast
6:53 AM 59.0 °F - 59.0 °F 100% 29.95 in 2.0 mi ENE 3.5 mph - N/A   Overcast
7:00 AM 59.0 °F - 59.0 °F 100% 29.96 in 5.0 mi ENE 3.5 mph - N/A   Overcast
7:26 AM 59.0 °F - 59.0 °F 100% 29.96 in 2.0 mi ENE 4.6 mph - N/A   Mostly Cloudy
7:34 AM 60.8 °F - 60.8 °F 100% 29.97 in 0.8 mi ENE 5.8 mph - N/A   Overcast
7:45 AM 60.8 °F - 60.8 °F 100% 29.97 in 0.2 mi ENE 3.5 mph - N/A Fog Fog
7:53 AM 61.0 °F - 61.0 °F 100% 29.97 in 0.2 mi NE 4.6 mph - N/A Fog Fog
8:20 AM 62.6 °F - 62.6 °F 100% 29.98 in 0.5 mi NNE 3.5 mph - N/A Fog Fog
8:27 AM 62.6 °F - 62.6 °F 100% 29.98 in 2.0 mi NE 3.5 mph - N/A   Mostly Cloudy
8:34 AM 62.6 °F - 62.6 °F 100% 29.98 in 5.0 mi NE 3.5 mph - N/A   Scattered Clouds
8:53 AM 64.0 °F - 63.0 °F 96% 29.98 in 9.0 mi ENE 4.6 mph - N/A   Clear
9:53 AM 71.1 °F - 64.9 °F 81% 29.99 in 10.0 mi East 6.9 mph - N/A   Clear
10:53 AM 75.0 °F - 64.0 °F 69% 29.99 in 10.0 mi ENE 8.1 mph - N/A   Clear
11:26 AM 75.2 °F - 62.6 °F 65% 29.98 in 10.0 mi East 4.6 mph - N/A   Mostly Cloudy
11:53 AM 77.0 °F - 63.0 °F 62% 29.97 in 10.0 mi South 8.1 mph - N/A   Scattered Clouds
12:53 PM 79.0 °F - 64.0 °F 60% 29.94 in 10.0 mi South 6.9 mph - N/A   Mostly Cloudy
1:53 PM 80.1 °F 81.2 °F 62.1 °F 54% 29.91 in 10.0 mi South 3.5 mph - N/A   Partly Cloudy
2:53 PM 81.0 °F 81.7 °F 61.0 °F 50% 29.89 in 10.0 mi Calm Calm - N/A   Scattered Clouds
3:53 PM 79.0 °F - 61.0 °F 54% 29.89 in 10.0 mi SSW 3.5 mph - N/A   Overcast
4:53 PM 77.0 °F - 61.0 °F 58% 29.91 in 10.0 mi WSW 10.4 mph - N/A   Partly Cloudy
5:53 PM 73.9 °F - 60.1 °F 62% 29.93 in 10.0 mi West 5.8 mph - N/A   Mostly Cloudy
6:53 PM 71.1 °F - 62.1 °F 73% 29.94 in 10.0 mi NW 4.6 mph - N/A   Partly Cloudy
7:53 PM 71.6 °F - 64.4 °F 78% 29.96 in 10.0 mi NNW 4.6 mph - N/A   Mostly Cloudy
8:53 PM 68.0 °F - 66.0 °F 93% 29.97 in 10.0 mi ESE 5.8 mph - 0.01 in Rain Light Rain
9:53 PM 68.0 °F - 66.0 °F 93% 29.98 in 3.0 mi North 3.5 mph - 0.03 in Rain Rain
10:53 PM 66.9 °F - 64.9 °F 93% 29.97 in 10.0 mi Calm Calm - 0.01 in   Overcast
11:53 PM 66.9 °F - 64.9 °F 93% 29.98 in 10.0 mi East 3.5 mph - N/A   Overcast